Погода в Лене

Германия     52°11′24″N   8°41′14″E
темп.,
°C
ветер,
м/с
пор.,
м/с
влажн.,
%
обл.,
%
осадки,
мм/ч
давл.,
гПа
погр.,
м
15 апреля, чт
чт1523:000с22895 0.0 103022
02:00−1с11925 0.0 103010
05:00−2с11945 0.0 103010
08:00+1ссв12909 0.0 1031130
11:00+6ссв3465100 0.0 1031783
14:00+8ссв3446100 0.0 10302124
17:00+8с4546100 0.0 10291816
20:00+5с3669100 0.1 1029138
16 апреля, пт
пт1623:00+2ссв228297 0.0 103032
02:000с228614 0.0 102917
05:000ссз2284100 0.0 102933
08:00+1с267882 0.0 1029217
11:00+7ссв456351 0.0 1028834
14:00+10ссв455193 0.0 10271666
17:00+10ссв564985 0.0 10261676
20:00+7св496398 0.0 1026281
17 апреля, сб
сб1723:00+3ссв2275100 0.0 102739
02:00+2с227794 0.0 102741
05:000ссз228720 0.0 102614
08:00+2с247271 0.0 1026173
11:00+5с3671100 0.0 1025626
14:00+5ссв3581100 0.0 1025692
17:00+6ссв348099 0.0 1024452
20:00+6в0085100 0.0 102410
18 апреля, вс
вс1823:00+5зюз1187100 0.0 102515
02:00+5з2291100 0.0 102423
05:00+5ссз1295100 0.0 102330
08:00+5ссз2396100 0.0 1024149
11:00+7ссз3588100 0.1 1024439
14:00+8ссз4588100 0.1 1023516
17:00+11ссз457196 0.3 10221035
20:00+9ссз3686100 0.9 1022148
19 апреля, пн
пн1923:00+8с3697100 0.5 1022250
02:00+7св1298100 2.4 102261
05:00+7сз2397100 1.3 1021120
08:00+7с129677 1.8 1021193
11:00+9в2485100 0.1 1021567
14:00+13ссв226565 0.4 10211062
17:00+13ссв336131 0.3 10201221
20:00+10св22805 0.3 101928